Date,TemperatureHighF,TemperatureAvgF,TemperatureLowF,DewpointHighF,DewpointAvgF,DewpointLowF,HumidityHigh,HumidityAvg,HumidityLow,PressureMaxIn,PressureMinIn,WindSpeedMaxMPH,WindSpeedAvgMPH,GustSpeedMaxMPH,PrecipitationSumIn
2013-1-1,56,10,54,53,-72,-100,95,17,83,30.18,29.84,6,-812,15,0.00
2013-1-2,42,11,41,40,-62,-100,93,25,90,30.29,30.15,1,-726,7,0.00
2013-1-3,50,15,42,37,-57,-100,80,21,55,30.39,30.26,6,-684,17,0.00
2013-1-4,48,5,47,40,-85,-100,75,8,73,30.45,30.33,11,-893,11,0.00
2013-1-15,41,10,40,41,-67,-100,100,23,94,30.17,30.01,3,-760,13,0.00
2013-1-16,55,20,36,30,-46,-100,80,20,34,30.33,30.16,12,-575,21,0.00
2013-1-17,65,25,34,40,-40,-100,84,21,35,30.44,30.27,3,-563,15,0.00
2013-1-18,63,25,40,47,-39,-100,89,24,39,30.50,30.33,8,-570,13,0.00
2013-1-19,70,26,48,54,-37,-100,93,27,55,30.33,30.15,10,-587,16,0.00
2013-1-20,72,28,44,58,-35,-100,99,28,46,30.25,30.08,5,-575,11,0.00
2013-1-21,55,5,49,54,-84,-100,99,10,99,30.19,30.10,0,-896,0,0.00
2013-1-22,71,25,64,54,-46,-100,69,19,48,30.26,30.19,9,-642,15,0.00
2013-1-23,67,22,50,64,-41,-100,99,37,91,30.32,30.25,2,-628,6,0.00
2013-2-10,66,14,65,55,-67,-100,69,14,64,29.94,29.84,2,-785,9,0.00
2013-2-11,62,23,56,56,-41,-100,96,32,74,30.00,29.89,11,-613,16,0.00
2013-2-12,65,22,58,61,-43,-100,100,33,83,29.99,29.79,7,-644,13,0.00
2013-2-13,62,26,53,46,-38,-100,72,25,48,30.14,29.98,4,-564,11,0.00
2013-2-14,67,27,42,48,-37,-100,93,23,28,30.15,30.01,4,-553,11,0.00
2013-2-15,68,29,46,53,-34,-100,94,26,39,30.31,30.07,7,-545,14,0.00
2013-2-16,64,26,40,36,-40,-100,76,18,29,30.45,30.25,6,-545,12,0.00
2013-2-17,70,26,44,54,-39,-100,97,25,47,30.25,30.01,12,-588,20,0.00
2013-2-18,75,29,68,68,-34,-100,86,31,76,30.04,29.84,10,-604,21,0.00
2013-2-19,61,17,51,45,-56,-100,76,19,52,30.21,30.04,9,-693,15,0.00
2013-2-20,71,36,66,66,-14,-100,92,45,79,29.95,29.70,20,-465,26,0.00
2013-2-21,75,4,72,72,-91,-100,93,5,91,29.73,29.59,5,-946,15,0.00
2013-2-22,66,39,59,52,-6,-100,66,39,54,29.95,29.84,7,-363,16,0.00
2013-2-23,67,27,50,52,-34,-100,75,28,52,30.00,29.86,6,-546,13,0.00
2013-2-24,71,26,50,62,-36,-100,98,33,71,29.90,29.61,12,-596,18,0.00
2013-2-25,74,27,62,67,-48,-100,98,12,12,29.83,29.52,21,-604,36,0.00
2013-2-26,67,27,43,38,-39,-100,71,18,28,29.95,29.82,10,-546,20,0.00
2013-2-27,-200,0,200,-100,-100,-100,0,0,100,29.90,29.88,0,-999,0,0.00
2013-3-27,64,20,63,53,-53,-100,69,21,66,30.21,30.19,9,-692,16,0.00
2013-3-28,72,32,63,62,-26,-100,90,34,68,30.21,30.14,11,-539,18,0.00
2013-3-29,78,34,60,66,-24,-100,98,33,55,30.18,30.07,10,-526,18,0.00
2013-3-30,65,4,62,65,-90,-100,98,6,98,30.09,30.03,0,-937,0,0.00
2013-4-1,76,29,70,68,-34,-100,83,31,75,29.97,29.93,11,-602,18,0.00
2013-4-2,72,11,68,69,-74,-100,95,14,89,29.97,29.87,6,-844,11,0.00
2013-4-14,84,36,73,72,-21,-100,87,36,66,29.70,29.64,8,-531,18,0.00
2013-4-15,84,36,72,72,-21,-100,93,36,65,29.81,29.70,10,-539,18,0.00
2013-4-16,82,36,70,73,-21,-100,96,38,71,29.89,29.78,13,-536,21,0.00
2013-4-17,78,32,74,74,-27,-100,94,38,85,29.89,29.68,13,-577,22,0.00
2013-4-18,76,11,75,74,-74,-100,95,14,91,30.03,29.64,2,-852,10,0.00
2013-4-19,72,32,50,40,-32,-100,67,20,24,30.26,30.03,4,-497,18,0.00
2013-4-20,69,23,45,43,-45,-100,67,19,37,30.22,30.16,8,-609,15,0.00